Location: Days
(41.3591°N, 106.7339°W)
Time: 17:24:18
(UTC+00:00)

O/OREOS (USA 219) - Pass Details

Date: 30 June 2022
Orbit: 621 x 646 km, 72.0° (Epoch: 22 May)

Event Time Altitude Azimuth Distance (km) Brightness Sun altitude
Rises 06:52:31 0° 349° (N) 2,962 ? -25.3°
Reaches altitude 10° 06:55:12 10° 4° (N) 2,050 ? -25.4°
Maximum altitude 06:58:54 23° 57° (ENE) 1,362 ? -25.4°
Enters shadow 07:00:25 20° 86° (E) 1,500 ? -25.4°
